Station 42019 (LLNR 1285) - FREEPORT, TX - 60 NM South of Freeport, TX Image indicating link to RSS feed of recent meteorological observations for station 42019


Conditions at 42019 as of
(12:30 am CDT)
0530 GMT on 07/19/2024:
     

Click on the graph icon in the table below to see a time series plot of the last five days of that observation.

5-day plot - Wind Direction Wind Direction (WDIR):SSE ( 160 deg true )
5-day plot - Wind Speed Wind Speed (WSPD): 5.8 kts
5-day plot - Wind Gust Wind Gust (GST): 9.7 kts
5-day plot - Atmospheric Pressure Atmospheric Pressure (PRES):30.01 in
5-day plot - Water Temperature Water Temperature (WTMP): 86.4 °F
5-day plot - Wind Speed at 10 Meters Wind Speed at 10 meters (WSPD10M): 7.8 kts
5-day plot - Wind Speed at 20 Meters Wind Speed at 20 meters (WSPD20M): 7.8 kts
5-day plot -  Wind Speed, Wind Gust and Atmospheric Pressure Combined plot of Wind Speed, Gust, and Air Pressure
Supplemental Measurements
Highest 1-minute Wind Speed
Time (CDT)5-day plot - 1-Minute Wind Speed WSPD 5-day plot - 1-Minute Wind Direction WDIR
12:30 am 7.8 kts-
Previous observations
TIME
(CDT)
5-day plot - Wind Direction
WDIR
 
5-day plot - Wind Speed
WSPD
kts
5-day plot - Wind Gust
GST
kts
5-day plot - Wave Height
WVHT
ft
5-day plot - Dominant Wave Period
DPD
sec
5-day plot - Average Wave Period
APD
sec
5-day plot - Mean Wave Direction
MWD
 
5-day plot - Atmospheric Pressure
PRES
in
5-day plot - Pressure Tendency
PTDY
in
5-day plot - Air Temperature
ATMP
°F
5-day plot - Water Temperature
WTMP
°F
5-day plot - Dew Point
DEWP
°F
5-day plot - Salinity
SAL
psu
5-day plot - Visibility
VIS
nmi
5-day plot - Tide (above MLLW)
TIDE
ft
2024-07-19 12:20 amSSE 5.8 7.8 1.3 53.8 SE30.01-- 86.4----
2024-07-19 12:10 amSSE 7.8 7.8 1.3-3.8 SE30.01-- 86.4----
2024-07-19 12:00 amSSE 7.8 9.7----30.02+0.03- 86.4----
2024-07-18 11:50 pmSSE 7.8 9.7 1.3 53.8 SE30.03-- 86.4----
2024-07-18 11:40 pmSSE 7.8 7.8----30.03-- 86.4----
2024-07-18 11:30 pmSSE 7.8 7.8----30.03-- 86.4----
2024-07-18 11:20 pmSSE 7.8 9.7 1.3 53.6SSE30.03-- 86.4----
2024-07-18 11:10 pm SE 7.8 9.7 1.3-3.6SSE30.02-- 86.4----
2024-07-18 11:00 pm SE 7.8 9.7----30.02+0.06- 86.4----
2024-07-18 10:50 pm SE 7.8 9.7 1.3 53.8 S30.02-- 86.4----
2024-07-18 10:40 pm SE 7.8 9.7----30.01-- 86.4----
2024-07-18 10:30 pmESE 5.8 7.8----30.01-- 86.4----
2024-07-18 10:20 pmESE 7.8 7.8 1.3 53.7SSW30.01-- 86.4----
2024-07-18 10:10 pmESE 7.8 7.8 1.3-3.7SSW30.01-- 86.4----
2024-07-18 10:00 pm E 5.8 7.8----30.00+0.04- 86.4----
2024-07-18 09:50 pm E 5.8 7.8 1.3 54.0 S30.00-- 86.5----
2024-07-18 09:40 pm E 5.8 7.8----29.99-- 86.4----
2024-07-18 09:30 pm E 5.8 5.8----29.99-- 86.5----
2024-07-18 09:20 pm E 5.8 7.8 1.3 44.0 S29.99-- 86.5----
2024-07-18 09:10 pm E 5.8 7.8 1.3-4.0 S29.98-- 86.5----
2024-07-18 09:00 pm E 7.8 9.7----29.98+0.01- 86.5----
2024-07-18 08:50 pm E 7.8 9.7 1.3 54.0SSE29.98-- 86.5----
2024-07-18 08:40 pm E 7.8 9.7----29.98-- 86.7----
2024-07-18 08:30 pm E 7.8 9.7----29.97-- 86.7----
2024-07-18 08:20 pm E 7.8 9.7 1.6 44.0WSW29.97-- 86.7----
2024-07-18 08:10 pm E 7.8 9.7 1.6-4.0WSW29.97-- 86.7----
2024-07-18 08:00 pmENE 7.8 9.7----29.97-0.01- 86.7----
2024-07-18 07:50 pmENE 7.8 9.7 1.6 53.9SSW29.97-- 86.7----
2024-07-18 07:40 pmENE 5.8 7.8----29.97-- 86.9----
2024-07-18 07:30 pm NE 5.8 7.8----29.97-- 86.9----
2024-07-18 07:20 pm NE 7.8 9.7 1.6 44.0SSW29.97-- 86.9----
2024-07-18 07:10 pmNNE 7.8 9.7 1.6-4.0SSW29.96-- 86.9----
2024-07-18 07:00 pmNNE 7.8 9.7----29.97-0.03- 86.9----
2024-07-18 06:50 pmNNE 7.8 9.7 2.0 54.0 S29.97-- 86.9----
2024-07-18 06:40 pm N 7.8 9.7----29.97-- 86.9----
2024-07-18 06:10 pmNNE 7.8 11.7 2.0-3.9 SW29.97-- 86.9----
2024-07-18 06:00 pmNNE 7.8 9.7----29.97-0.03- 86.9----
2024-07-18 05:50 pmNNE 7.8 9.7 2.0 43.8 NW29.97-- 86.9----
2024-07-18 05:40 pmNNE 7.8 9.7----29.97-- 86.7----
2024-07-18 05:30 pmNNE 7.8 9.7----29.97-- 86.7----
2024-07-18 05:20 pmNNE 7.8 9.7 2.0 43.7NNW29.97-- 86.7----
2024-07-18 05:10 pm N 9.7 11.7 2.0-3.7NNW29.98-- 86.7----
2024-07-18 05:00 pm N 9.7 11.7----29.98-0.04- 86.7----
2024-07-18 04:50 pm N 9.7 11.7 2.0 43.7NNW29.98-- 86.9----
2024-07-18 04:40 pm N 9.7 11.7----29.98-- 86.7----
2024-07-18 04:30 pm N 7.8 11.7----29.98-- 86.9----
2024-07-18 04:20 pm N 7.8 9.7 2.0 53.6SSE29.99-- 86.9----
2024-07-18 04:10 pm N 7.8 9.7 2.0-3.6SSE29.99-- 86.9----
2024-07-18 04:00 pm N 7.8 9.7----29.99-0.06- 86.9----
2024-07-18 03:50 pm N 7.8 9.7 2.0 33.4 NW29.99-- 86.9----
2024-07-18 03:40 pm N 7.8 9.7 2.0-3.4 NW30.00-- 86.9----
2024-07-18 03:30 pmNNW 7.8 9.7----30.00-- 86.9----
2024-07-18 03:20 pmNNW 7.8 9.7 2.0 33.3NNW30.00-- 86.9----
2024-07-18 03:10 pmNNW 7.8 9.7----30.00-- 86.9----
2024-07-18 03:00 pmNNW 5.8 9.7 2.0-3.3NNW30.00-0.05- 86.9----
2024-07-18 02:50 pmNNW 5.8 9.7 2.0 33.2 NW30.01-- 86.9----
2024-07-18 02:40 pm N 7.8 9.7----30.01-- 86.7----
2024-07-18 02:30 pm N 7.8 9.7----30.02-- 86.7----
2024-07-18 02:20 pm N 7.8 9.7 2.0 33.2NNW30.02-- 86.7----
2024-07-18 02:10 pmNNW 7.8 9.7 2.0-3.2NNW30.02-- 86.5----
2024-07-18 02:00 pmNNW 9.7 11.7----30.02-0.04- 86.5----
2024-07-18 01:50 pmNNW 9.7 15.5 2.0 53.1 SE30.03-- 86.5----
2024-07-18 01:40 pmNNW 13.6 15.5 2.0-3.1 SE30.03-- 86.4----
2024-07-18 01:30 pmNNW 15.5 19.4----30.04-- 86.4----
2024-07-18 01:20 pm N 19.4 23.3 1.6 53.5ESE30.05-- 86.5----
2024-07-18 01:10 pm N 19.4 25.3 1.6-3.5ESE30.06-- 86.5----
2024-07-18 01:00 pm NW 11.7 15.5----30.06+0.01- 86.5----
2024-07-18 12:50 pmWNW 11.7 13.6 1.6 53.7SSE30.05-- 86.7----
2024-07-18 12:40 pmWNW 9.7 11.7----30.05-- 86.7----
2024-07-18 12:30 pmWNW 9.7 11.7----30.05-- 86.7----
2024-07-18 12:20 pmWNW 9.7 11.7 1.6 43.6 SE30.05-- 86.5----
2024-07-18 12:10 pmWNW 9.7 11.7----30.05-- 86.7----
2024-07-18 12:00 pmWNW 7.8 9.7 1.6-3.6 SE30.05+0.02- 86.7----
2024-07-18 11:50 am W 9.7 11.7 1.6 53.6ESE30.05-- 86.7----
2024-07-18 11:40 amWNW 7.8 9.7 1.6-3.6ESE30.05-------
2024-07-18 11:30 amWNW 7.8 9.7----30.06-- 86.5----
2024-07-18 11:20 amWNW 7.8 9.7 1.6 53.8ESE30.06-- 86.5----
2024-07-18 11:10 amWNW 7.8 9.7 1.6-3.8ESE30.06-- 86.4----
2024-07-18 11:00 amWNW 7.8 11.7----30.06+0.04- 86.4----
2024-07-18 10:50 am W 7.8 9.7 1.6 53.6ESE30.06-- 86.4----
2024-07-18 10:40 am W 9.7 11.7----30.06-- 86.4----
2024-07-18 10:30 am W 7.8 9.7----30.05-- 86.4----
2024-07-18 10:20 am W 7.8 9.7 1.6 43.7 S30.05-- 86.4----
2024-07-18 10:10 am W 7.8 9.7 1.6-3.7 S30.05-- 86.4----
2024-07-18 10:00 am W 7.8 9.7----30.05+0.04- 86.4----
2024-07-18 09:50 amWSW 7.8 9.7 1.6 53.6SSE30.04-- 86.4----
2024-07-18 09:40 am W 7.8 11.7 1.6-3.6SSE30.05-- 86.4----
2024-07-18 09:30 am W 9.7 11.7----30.04-- 86.4----
2024-07-18 09:20 am W 9.7 11.7 1.6 53.6SSE30.03-- 86.4----
2024-07-18 09:10 amWSW 7.8 9.7 1.6-3.6SSE30.03-- 86.4----
2024-07-18 09:00 am SW 7.8 9.7----30.03+0.06- 86.4----
2024-07-18 08:50 am SW 7.8 9.7 1.6 53.6 SE30.03-- 86.4----
2024-07-18 08:40 am SW 9.7 9.7----30.02-- 86.4----
2024-07-18 08:30 amWSW 7.8 9.7----30.02-- 86.4----
2024-07-18 08:20 am SW 7.8 9.7 2.0 53.6 SE30.03-- 86.4----
2024-07-18 08:10 amWSW 7.8 9.7 2.0-3.6 SE30.02-- 86.4----
2024-07-18 08:00 amWSW 9.7 11.7----30.02+0.04- 86.4----
2024-07-18 07:50 am SW 9.7 11.7 2.0 43.6 S30.02-- 86.4----
2024-07-18 07:40 am SW 9.7 11.7 2.0-3.6 S30.01-- 86.4----
2024-07-18 07:30 am SW 9.7 11.7----30.01-- 86.4----
2024-07-18 07:20 am SW 9.7 11.7 2.0 53.6 SE30.00-- 86.4----
2024-07-18 07:10 am SW 9.7 11.7 2.0-3.6 SE30.00-- 86.4----
2024-07-18 07:00 am SW 9.7 11.7----30.00+0.02- 86.4----
2024-07-18 06:50 amSSW 9.7 11.7 2.0 53.6 SE30.00-- 86.4----
2024-07-18 06:40 amSSW 11.7 13.6----29.99-- 86.4----
2024-07-18 06:30 amSSW 9.7 15.5----29.99-- 86.4----
2024-07-18 06:20 amSSW 11.7 13.6 2.0 53.7 SE29.98-- 86.4----
2024-07-18 06:10 amSSW 11.7 13.6 2.0-3.7 SE29.98-------
2024-07-18 06:00 amSSW 11.7 15.5----29.98-0.02- 86.4----
2024-07-18 05:50 amSSW 11.7 13.6 2.0 53.6 S29.98-- 86.4----
2024-07-18 05:40 amSSW 11.7 15.5----29.98-- 86.4----
2024-07-18 05:30 amSSW 9.7 13.6----29.97-- 86.4----
2024-07-18 05:20 amSSW 11.7 13.6 2.0 53.6 SE29.98-- 86.4----
2024-07-18 05:10 amSSW 9.7 13.6 2.0-3.6 SE29.98-- 86.4----
2024-07-18 05:00 amSSW 9.7 11.7----29.98-0.03- 86.4----
2024-07-18 04:50 amSSW 9.7 13.6 2.0 53.6 S29.98-- 86.4----
2024-07-18 04:40 amSSW 11.7 13.6----29.99-- 86.4----
2024-07-18 04:30 amSSW 9.7 11.7----29.98-- 86.4----
2024-07-18 04:20 amSSW 9.7 11.7 2.0 53.6SSE29.98-- 86.4----
2024-07-18 04:10 amSSW 11.7 13.6 2.0-3.6SSE29.98-- 86.4----
2024-07-18 04:00 amSSW 11.7 13.6----29.98-0.03- 86.4----
2024-07-18 03:50 amSSW 11.7 13.6 2.3 53.7SSE29.98-- 86.4----
2024-07-18 03:40 amSSW 11.7 13.6----29.98-- 86.4----
2024-07-18 03:30 am S 11.7 13.6----29.99-- 86.4----
2024-07-18 03:20 am S 11.7 13.6 2.0 43.5 S30.00-- 86.4----
2024-07-18 03:10 am S 11.7 13.6 2.0-3.5 S29.99-- 86.5----
2024-07-18 03:00 am S 11.7 13.6----30.00-0.01- 86.5----
2024-07-18 02:50 am S 9.7 13.6 2.0 53.6SSE30.00-- 86.5----
2024-07-18 02:40 am S 11.7 13.6----30.00-- 86.5----
2024-07-18 02:30 am S 9.7 13.6----30.01-- 86.5----
2024-07-18 02:20 amSSE 9.7 11.7 2.0 53.7SSE30.01-- 86.5----
2024-07-18 02:10 amSSE 11.7 13.6 2.0-3.7SSE30.01-- 86.5----
2024-07-18 02:00 am S 11.7 13.6----30.01-0.02- 86.5----
2024-07-18 01:50 amSSE 11.7 13.6 2.0 53.7SSE30.01-- 86.5----
2024-07-18 01:40 am S 11.7 13.6 2.0-3.7SSE30.01-- 86.5----
2024-07-18 01:30 am S 11.7 13.6----30.01-- 86.5----
2024-07-18 01:20 am S 11.7 13.6 2.0 53.9SSE30.00-- 86.5----
2024-07-18 01:10 am S 11.7 13.6 2.0-3.9SSE30.01-- 86.7----
2024-07-18 01:00 am S 11.7 13.6----30.01+0.00- 86.7----
2024-07-18 12:50 am S 11.7 13.6 2.0 53.9SSE30.01-- 86.7----

Detailed Wave Summary
for 42019 as of (12:10 am CDT)
0510 GMT on 07/19/2024:

These wave data are displayed in rounded times.

     

Click on the graph icon in the table below to see a time series plot of the last five days of that observation.

5-day plot - Significant Wave Height Significant Wave Height (WVHT): 1.3 ft
5-day plot - Swell Height Swell Height (SwH): 1.0 ft
5-day plot - Swell Period Swell Period (SwP): 4.5 sec
5-day plot - Swell Direction Swell Direction (SwD): SE
5-day plot - Wind Wave Height Wind Wave Height (WWH): 1.0 ft
5-day plot - Wind Wave Period Wind Wave Period (WWP): 3.7 sec
5-day plot - Wind Wave Direction Wind Wave Direction (WWD): S
5-day plot - Average Wave Period Average Wave Period (APD): 3.8 sec
Previous observations
TIME
(CDT)
5-day plot - Wave Height
WVHT
ft
5-day plot - Swell Height
SwH
ft
5-day plot - Swell Period
SwP
sec
5-day plot - Swell Direction
SwD
 
5-day plot - Wind Wave Height
WWH
ft
5-day plot - Wind Wave Period
WWP
sec
5-day plot - Wind Wave Direction
WWD
 
5-day plot - Wave Steepness
STEEPNESS
 
5-day plot - Average Wave Period
APD
sec
2024-07-18 11:40 pm 1.3 1.0 5.0 SE 1.0 3.8 SSE N/A 3.8
2024-07-18 11:10 pm 1.3 1.0 5.0SSE 1.0 3.8 ENE N/A 3.6
2024-07-18 10:40 pm 1.3 1.0 5.0 S 1.0 3.8 SSW N/A 3.8
2024-07-18 10:10 pm 1.3 1.0 4.8SSW 1.0 3.7 SSE N/A 3.7
2024-07-18 09:40 pm 1.3 1.0 4.8 S 1.0 4.0 S N/A 4.0
2024-07-18 09:10 pm 1.3 1.3 4.3 S 1.0 3.4 WNW N/A 4.0
2024-07-18 08:40 pm 1.3 1.0 4.8SSE 1.0 3.6 NW N/A 4.0
2024-07-18 08:10 pm 1.6 1.3 4.3WSW 1.0 3.8 WNW N/A 4.0
2024-07-18 07:40 pm 1.6 1.3 5.0SSW 1.0 3.8 W N/A 3.9
2024-07-18 07:10 pm 1.6 1.3 4.3SSW 1.0 3.2 NW N/A 4.0
2024-07-18 06:40 pm 2.0 1.3 5.0 S 1.3 4.0 NW N/A 4.0
2024-07-18 06:10 pm 2.0 1.3 4.3 SW 1.3 4.0 NW N/A 3.9
2024-07-18 05:40 pm 2.0 1.3 4.5 W 1.3 4.0 NW N/A 3.8
2024-07-18 05:10 pm 2.0 0.7 5.6SSE 2.0 3.7 NNW N/A 3.7
2024-07-18 04:40 pm 2.0 1.3 5.0 S 1.6 3.7 NNW N/A 3.7
2024-07-18 04:10 pm 2.0 1.3 5.0SSE 1.3 2.9 NNW N/A 3.6
2024-07-18 03:40 pm 2.0 1.3 5.6ESE 1.6 3.1 NW N/A 3.4
2024-07-18 03:10 pm 2.0 1.3 5.0 SE 1.6 3.0 NNW N/A 3.3
2024-07-18 02:40 pm 2.0 1.3 5.3ESE 1.6 2.7 NW N/A 3.2
2024-07-18 02:10 pm 2.0 1.3 5.6ESE 1.6 3.0 NNW N/A 3.2
2024-07-18 01:40 pm 2.0 0.7 6.7ESE 2.0 4.8 SE N/A 3.1
2024-07-18 01:10 pm 1.6 0.3 8.3SSE 1.6 5.3 ESE N/A 3.5
2024-07-18 12:40 pm 1.6 1.0 5.0ESE 1.3 4.5 SSE N/A 3.7
2024-07-18 12:10 pm 1.6 1.0 5.3 E 1.3 4.0 SE N/A 3.6
2024-07-18 11:40 am 1.6 1.3 5.3ESE 1.0 3.6 S N/A 3.6
2024-07-18 11:10 am 1.6 1.3 5.0ESE 1.0 3.4 SSW N/A 3.8
2024-07-18 10:40 am 1.6 1.0 5.0ESE 1.3 4.3 SSE N/A 3.6
2024-07-18 10:10 am 1.6 1.3 4.2 S 1.3 3.7 S N/A 3.7
2024-07-18 09:40 am 1.6 1.3 4.5SSE 1.3 3.3 S N/A 3.6
2024-07-18 09:10 am 1.6 1.3 4.8SSE 1.3 3.6 S N/A 3.6
2024-07-18 08:40 am 1.6 1.0 4.5 SE 1.3 4.2 S N/A 3.6
2024-07-18 08:10 am 2.0 1.3 4.5 SE 1.3 3.2 SSW N/A 3.6
2024-07-18 07:40 am 2.0 1.0 5.0ESE 1.6 4.0 S N/A 3.6
2024-07-18 07:10 am 2.0 1.0 4.8 SE 1.6 3.8 S N/A 3.6
2024-07-18 06:40 am 2.0 0.7 6.7ESE 2.0 4.8 SE N/A 3.6
2024-07-18 06:10 am 2.0 0.7 6.7 SE 2.0 5.0 SE N/A 3.7
2024-07-18 05:40 am 2.0 0.7 7.1ESE 2.0 4.5 S N/A 3.6
2024-07-18 05:10 am 2.0 0.7 6.7ESE 2.0 5.0 SE N/A 3.6
2024-07-18 04:40 am 2.0 0.7 6.7 SE 2.0 4.5 S N/A 3.6
2024-07-18 04:10 am 2.0 0.7 7.1ESE 2.0 5.0 SSE N/A 3.6
2024-07-18 03:40 am 2.3 0.7 6.7 NE 2.0 4.8 SSE N/A 3.7
2024-07-18 03:10 am 2.0 0.7 7.1 SE 2.0 4.2 S N/A 3.5
2024-07-18 02:40 am 2.0 0.7 6.7SSE 2.0 5.0 SSE N/A 3.6
2024-07-18 02:10 am 2.0 1.0 6.2 SE 2.0 4.8 SSE N/A 3.7
2024-07-18 01:40 am 2.0 0.7 6.2 SE 1.6 5.0 SSE N/A 3.7
2024-07-18 01:10 am 2.0 1.0 6.7SSE 1.6 4.8 SSE N/A 3.9

Plot of wave energy versus frequency (and period)